Date String (YYYY-MM-DD hh:mm:ss) UTC,Instrument flags,Ambient pressure (hPa),Sample flow (lpm),Bypass flow (lpm),Sample temperature (°C),Ambient temperature (°C),ASC tube jacket temperature (°C),LED temperature (°C),Box temperature (°C),Sample RH (%),Span deviation,Mass concentration (μg/m³),Mass concentration (μg/m³),Mass concentration (μg/m³)
DateTimeUTC,F1_M11,P_M11,Q1_M11,Q2_M11,T1_M11,T2_M11,T3_M11,T4_M11,T5_M11,U1_M11,ZSPAN_M11,X2_M11,X0_M11,X1_M11
2021-11-23 21:00:00,,0816.1,5.01,0.00,28.7,27.7,00.0,37.7,30.4,04.6,0000.0,0000.72,0001.46,0000.48
2021-11-23 21:01:00,,0816.1,5.01,0.00,28.7,27.8,00.0,37.7,30.4,04.7,0000.0,0000.73,0001.53,0000.48
2021-11-23 21:02:00,,0816.0,4.99,0.00,28.7,27.8,00.0,37.7,30.3,04.7,0000.0,0000.71,0001.56,0000.47
2021-11-23 21:03:00,,0816.0,4.99,0.00,28.7,27.8,00.0,37.7,30.4,04.8,0000.0,0000.68,0002.11,0000.46
2021-11-23 21:04:00,,0815.8,5.00,0.00,28.7,27.7,00.0,37.7,30.3,04.8,0000.0,0000.68,0002.45,0000.45
2021-11-23 21:05:00,,0815.8,4.99,0.00,28.7,27.8,00.0,37.7,30.4,04.8,0000.0,0000.66,0002.35,0000.45
2021-11-23 21:06:00,,0816.0,5.00,0.00,28.7,27.8,00.0,37.7,30.4,04.8,0000.0,0000.66,0003.14,0000.45
2021-11-23 21:07:00,,0815.9,5.02,0.00,28.7,27.8,00.0,37.7,30.4,04.8,0000.0,0000.65,0003.18,0000.45
2021-11-23 21:08:00,,0816.1,4.98,0.00,28.7,27.8,00.0,37.7,30.4,04.9,0000.0,0000.62,0003.07,0000.45
2021-11-23 21:09:00,,0816.2,5.02,0.00,28.7,27.7,00.0,37.7,30.3,04.9,0000.0,0000.59,0002.95,0000.44
2021-11-23 21:10:00,,0816.1,4.99,0.00,28.7,27.7,00.0,37.7,30.3,04.8,0000.0,0000.61,0003.13,0000.44
2021-11-23 21:11:00,,0816.3,5.01,0.00,28.7,27.6,00.0,37.7,30.3,04.9,0000.0,0000.63,0003.21,0000.44
2021-11-23 21:12:00,,0816.0,4.99,0.00,28.7,27.7,00.0,37.7,30.4,04.9,0000.0,0000.61,0003.10,0000.44
2021-11-23 21:13:00,,0816.1,4.99,0.00,28.7,27.7,00.0,37.7,30.3,04.9,0000.0,0000.61,0004.11,0000.44
2021-11-23 21:14:00,,0816.0,5.01,0.00,28.7,27.7,00.0,37.7,30.3,04.9,0000.0,0000.63,0003.55,0000.45
2021-11-23 21:15:00,,0815.8,5.00,0.00,28.7,27.8,00.0,37.7,30.4,04.9,0000.0,0000.64,0003.78,0000.46
2021-11-23 21:16:00,,0815.8,4.99,0.00,28.7,27.8,00.0,37.7,30.4,05.0,0000.0,0000.68,0004.01,0000.46
2021-11-23 21:17:00,,0815.8,5.00,0.00,28.7,27.8,00.0,37.7,30.4,05.0,0000.0,0000.67,0003.19,0000.46
2021-11-23 21:18:00,,0815.8,4.99,0.00,28.7,27.8,00.0,37.7,30.5,05.0,0000.0,0000.66,0003.09,0000.45
2021-11-23 21:19:00,,0815.7,5.02,0.00,28.7,27.8,00.0,37.7,30.5,05.0,0000.0,0000.66,0003.08,0000.45
2021-11-23 21:20:00,,0815.7,5.00,0.00,28.7,27.8,00.0,37.7,30.5,05.0,0000.0,0000.69,0003.15,0000.46
2021-11-23 21:21:00,,0815.7,5.01,0.00,28.7,27.8,00.0,37.7,30.4,05.0,0000.0,0000.68,0003.04,0000.46
2021-11-23 21:22:00,,0815.7,5.00,0.00,28.7,27.8,00.0,37.7,30.4,05.0,0000.0,0000.68,0003.03,0000.46
2021-11-23 21:23:00,,0815.8,5.00,0.00,28.7,27.8,00.0,37.7,30.4,05.1,0000.0,0000.67,0003.06,0000.45
2021-11-23 21:24:00,,0815.8,5.00,0.00,28.7,27.7,00.0,37.7,30.4,05.1,0000.0,0000.68,0002.04,0000.44
2021-11-23 21:25:00,,0815.8,5.01,0.00,28.7,27.8,00.0,37.7,30.4,05.1,0000.0,0000.67,0001.93,0000.44
2021-11-23 21:26:00,,0815.8,4.99,0.00,28.7,27.8,00.0,37.7,30.4,05.1,0000.0,0000.64,0001.33,0000.44
2021-11-23 21:27:00,,0815.8,5.00,0.00,28.7,27.8,00.0,37.7,30.4,05.1,0000.0,0000.61,0001.11,0000.43
2021-11-23 21:28:00,,0815.8,5.01,0.00,28.7,27.8,00.0,37.7,30.4,05.1,0000.0,0000.68,0001.32,0000.43
2021-11-23 21:29:00,,0815.8,5.00,0.00,28.7,27.7,00.0,37.7,30.3,05.1,0000.0,0000.69,0001.36,0000.43
2021-11-23 21:30:00,,0815.7,5.01,0.00,28.7,27.7,00.0,37.7,30.4,05.1,0000.0,0000.71,0001.38,0000.43
2021-11-23 21:31:00,,0815.8,5.00,0.00,28.7,27.8,00.0,37.7,30.4,05.2,0000.0,0000.69,0001.37,0000.43
2021-11-23 21:32:00,,0815.7,5.01,0.00,28.7,27.8,00.0,37.7,30.4,05.2,0000.0,0000.70,0001.64,0000.44
2021-11-23 21:33:00,,0815.6,5.01,0.00,28.7,27.8,00.0,37.7,30.4,05.2,0000.0,0000.74,0001.85,0000.45
2021-11-23 21:34:00,,0815.8,4.99,0.00,28.7,27.8,00.0,37.7,30.5,05.2,0000.0,0000.80,0002.09,0000.46
2021-11-23 21:35:00,,0815.7,5.02,0.00,28.7,27.8,00.0,37.7,30.5,05.2,0000.0,0000.85,0003.42,0000.48
2021-11-23 21:36:00,,0815.9,4.98,0.00,28.7,27.8,00.0,37.7,30.5,05.2,0000.0,0000.89,0004.72,0000.49
2021-11-23 21:37:00,,0815.7,4.99,0.00,28.7,27.8,00.0,37.7,30.5,05.2,0000.0,0000.91,0004.79,0000.50
2021-11-23 21:38:00,,0815.6,5.00,0.00,28.7,27.8,00.0,37.7,30.5,05.2,0000.0,0000.91,0004.86,0000.50
2021-11-23 21:39:00,,0815.7,5.01,0.00,28.7,27.8,00.0,37.7,30.5,05.2,0000.0,0000.87,0004.76,0000.51
2021-11-23 21:40:00,,0815.9,4.99,0.00,28.7,27.8,00.0,37.7,30.4,05.2,0000.0,0000.87,0004.73,0000.52
2021-11-23 21:41:00,,0815.9,5.01,0.00,28.7,27.8,00.0,37.7,30.4,05.2,0000.0,0000.89,0004.80,0000.53
2021-11-23 21:42:00,,0815.8,4.99,0.00,28.7,27.8,00.0,37.7,30.4,05.2,0000.0,0000.93,0004.92,0000.53
2021-11-23 21:43:00,,0815.7,5.01,0.00,28.7,27.9,00.0,37.7,30.5,05.2,0000.0,0000.98,0004.84,0000.54
2021-11-23 21:44:00,,0815.8,5.00,0.00,28.7,27.9,00.0,37.8,30.5,05.2,0000.0,0001.01,0004.77,0000.54
2021-11-23 21:45:00,,0815.8,5.00,0.00,28.7,27.9,00.0,37.8,30.5,05.2,0000.0,0000.97,0004.61,0000.54
2021-11-23 21:46:00,,0815.8,5.00,0.00,28.7,27.9,00.0,37.8,30.5,05.2,0000.0,0000.94,0003.37,0000.53
2021-11-23 21:47:00,,0815.9,5.01,0.00,28.8,27.9,00.0,37.8,30.5,05.2,0000.0,0000.92,0002.19,0000.53
2021-11-23 21:48:00,,0815.9,4.99,0.00,28.8,27.9,00.0,37.8,30.5,05.2,0000.0,0000.97,0002.35,0000.53
2021-11-23 21:49:00,,0815.8,5.00,0.00,28.8,28.0,00.0,37.8,30.5,05.2,0000.0,0001.02,0003.34,0000.54
2021-11-23 21:50:00,,0815.7,5.01,0.00,28.8,28.0,00.0,37.8,30.5,05.2,0000.0,0001.01,0003.34,0000.54
2021-11-23 21:51:00,,0815.8,4.99,0.00,28.8,28.0,00.0,37.8,30.6,05.2,0000.0,0001.00,0003.32,0000.54
2021-11-23 21:52:00,,0815.8,4.99,0.00,28.8,28.0,00.0,37.8,30.6,05.2,0000.0,0001.00,0003.71,0000.54
2021-11-23 21:53:00,,0815.9,4.99,0.00,28.8,28.0,00.0,37.8,30.6,05.2,0000.0,0000.98,0004.22,0000.54
2021-11-23 21:54:00,,0815.9,5.01,0.00,28.8,28.0,00.0,37.8,30.6,05.2,0000.0,0000.94,0004.04,0000.54
2021-11-23 21:55:00,,0815.9,4.99,0.00,28.8,28.0,00.0,37.8,30.6,05.2,0000.0,0000.91,0003.93,0000.53
2021-11-23 21:56:00,,0815.9,4.99,0.00,28.9,28.0,00.0,37.8,30.6,05.2,0000.0,0000.90,0003.86,0000.53
2021-11-23 21:57:00,,0815.9,5.00,0.00,28.9,28.0,00.0,37.8,30.6,05.2,0000.0,0000.90,0003.67,0000.54
2021-11-23 21:58:00,,0816.1,5.00,0.00,28.9,28.0,00.0,37.9,30.6,05.2,0000.0,0000.91,0003.61,0000.54
2021-11-23 21:59:00,,0816.0,5.00,0.00,28.9,28.0,00.0,37.9,30.6,05.2,0000.0,0000.90,0003.99,0000.53
